{"data":{"norad_id":67792,"intl_designator":"2026-030AE","name":"KUIPER-00274","alt_names":[],"object_type":"PAYLOAD","status":"ACTIVE","operator":null,"country":"US","launch_date":"2026-02-12","launch_site_code":"FRGUI","launch_vehicle":null,"mission":null,"orbit_class":"UNKNOWN","rcs_meters":null,"size_class":null,"mass_kg":null,"dimensions":null,"purposes":[],"wikipedia_slug":null,"has_3d_model":false,"image_url":null,"decayed_at":null,"tle_current":{"epoch":"2026-09-20T03:33:56.405664Z","epoch_age_seconds":116690,"freshness":"FRESH","line1":"1 67792U 26030AE  26263.14856951  .00001895  00000+0  27755-3 0  9991","line2":"2 67792  51.9011  63.2335 0000530 133.5104 226.5903 14.79932747 34116","mean_motion":14.79932747,"eccentricity":5.3e-5,"inclination_deg":51.9011,"raan_deg":63.2335,"arg_perigee_deg":133.5104,"mean_anomaly_deg":226.5903,"bstar":0.00027755,"rev_number":3411,"period_min":97.30171880574,"perigee_km":629.16502114174,"apogee_km":629.90783452509,"semimajor_km":7007.6734278334,"source":"CELESTRAK","updated_at":"2026-09-21T09:00:16.858369Z"}}}